When you browse on this site, cookies collect data to enhance your experience and personalize the content and advertising you see.
Visit our Privacy Policy to learn more. By continuing to use the site, you agree to this use of cookies and data.
  • en France
  • Liste des pays
  • À 7 jours
  • Température de l'eau
  • Carte satellitaire
  • Carte météo
  • Widgets météo
  • user-avatar
    Se connecter

    Météo par heure à Bihać

    Ce jour, 21 Mars, Jeudi

    Heure Température Précipitation Vent Pression Humidité
    00:00 0°C° 0 mm 4 m/s 718 mmHg 79%
    01:00 +1°C° 0 mm 2 m/s 719 mmHg 86%
    02:00 -1°C° 0 mm 3 m/s 719 mmHg 85%
    03:00 -1°C° 0 mm 3 m/s 719 mmHg 85%
    04:00 -2°C° 0 mm 4 m/s 718 mmHg 84%
    05:00 -2°C° 0 mm 4 m/s 719 mmHg 83%
    06:00 -1°C° 0 mm 4 m/s 719 mmHg 82%
    07:00 -1°C° 0 mm 5 m/s 719 mmHg 78%
    08:00 +1°C° 0 mm 5 m/s 719 mmHg 73%
    09:00 +2°C° 0 mm 5 m/s 720 mmHg 68%
    10:00 +5°C° 0 mm 4 m/s 720 mmHg 62%
    11:00 +6°C° 0 mm 4 m/s 720 mmHg 60%
    12:00 +8°C° 0 mm 4 m/s 720 mmHg 58%
    13:00 +10°C° 0 mm 4 m/s 720 mmHg 56%
    14:00 +10°C° 0 mm 4 m/s 720 mmHg 56%
    15:00 +10°C° 0 mm 4 m/s 720 mmHg 57%
    16:00 +10°C° 0 mm 4 m/s 719 mmHg 58%
    17:00 +7°C° 0 mm 4 m/s 719 mmHg 64%
    18:00 +7°C° 0 mm 3 m/s 719 mmHg 70%
    19:00 +4°C° 0 mm 3 m/s 718 mmHg 76%
    20:00 +3°C° 0 mm 3 m/s 719 mmHg 77%
    21:00 +3°C° 0 mm 3 m/s 719 mmHg 78%
    22:00 +2°C° 0 mm 3 m/s 719 mmHg 79%
    23:00 +2°C° 0 mm 3 m/s 719 mmHg 80%

    Demain, 22 Mars, Vendredi

    Heure Température Précipitation Vent Pression Humidité
    00:00 +2°C° 0 mm 3 m/s 719 mmHg 81%
    01:00 +1°C° 0 mm 3 m/s 719 mmHg 82%
    02:00 +1°C° 0 mm 3 m/s 719 mmHg 82%
    03:00 +1°C° 0 mm 3 m/s 718 mmHg 83%
    04:00 0°C° 0 mm 3 m/s 718 mmHg 83%
    05:00 +1°C° 0 mm 3 m/s 718 mmHg 81%
    06:00 +1°C° 0 mm 3 m/s 719 mmHg 80%
    07:00 +1°C° 0 mm 3 m/s 719 mmHg 78%
    08:00 +3°C° 0 mm 3 m/s 719 mmHg 70%
    09:00 +7°C° 0 mm 3 m/s 719 mmHg 62%
    10:00 +9°C° 0 mm 3 m/s 720 mmHg 54%
    11:00 +10°C° 0 mm 3 m/s 720 mmHg 51%
    12:00 +11°C° 0 mm 3 m/s 720 mmHg 48%
    13:00 +13°C° 0 mm 3 m/s 719 mmHg 45%
    14:00 +12°C° 0 mm 3 m/s 719 mmHg 46%
    15:00 +12°C° 0 mm 3 m/s 718 mmHg 47%
    16:00 +12°C° 0 mm 3 m/s 718 mmHg 48%
    17:00 +10°C° 0 mm 3 m/s 718 mmHg 55%
    18:00 +9°C° 0 mm 3 m/s 718 mmHg 62%
    19:00 +7°C° 0 mm 3 m/s 717 mmHg 69%
    20:00 +5°C° 0 mm 3 m/s 717 mmHg 70%
    21:00 +5°C° 0 mm 3 m/s 717 mmHg 71%
    22:00 +4°C° 0 mm 3 m/s 717 mmHg 72%
    23:00 +4°C° 0 mm 3 m/s 717 mmHg 73%

    Après-demain, 23 Mars, Samedi

    Heure Température Précipitation Vent Pression Humidité
    00:00 +4°C° 0 mm 3 m/s 717 mmHg 74%
    01:00 +3°C° 0 mm 3 m/s 716 mmHg 75%
    02:00 +3°C° 0 mm 3 m/s 716 mmHg 76%
    03:00 +3°C° 0 mm 3 m/s 716 mmHg 77%
    04:00 +2°C° 0 mm 3 m/s 716 mmHg 79%
    05:00 +3°C° 0 mm 3 m/s 716 mmHg 78%
    06:00 +3°C° 0 mm 3 m/s 716 mmHg 77%
    07:00 +3°C° 0 mm 3 m/s 716 mmHg 77%
    08:00 +5°C° 0 mm 3 m/s 716 mmHg 70%
    09:00 +9°C° 0 mm 3 m/s 716 mmHg 64%
    10:00 +11°C° 0 mm 3 m/s 717 mmHg 58%
    11:00 +12°C° 0 mm 3 m/s 716 mmHg 55%
    12:00 +14°C° 0 mm 3 m/s 716 mmHg 53%
    13:00 +16°C° 0 mm 3 m/s 716 mmHg 51%
    14:00 +16°C° 0 mm 3 m/s 716 mmHg 53%
    15:00 +16°C° 0 mm 3 m/s 716 mmHg 54%
    16:00 +16°C° 0 mm 3 m/s 715 mmHg 55%
    17:00 +14°C° 0 mm 2 m/s 715 mmHg 64%
    18:00 +12°C° 0 mm 2 m/s 715 mmHg 72%
    19:00 +9°C° 0 mm 2 m/s 715 mmHg 80%
    20:00 +9°C° 0 mm 2 m/s 715 mmHg 82%
    21:00 +8°C° 0 mm 2 m/s 715 mmHg 84%
    22:00 +7°C° 0 mm 2 m/s 715 mmHg 86%
    23:00 +7°C° 0 mm 2 m/s 715 mmHg 86%

    24 Mars, Dimanche

    Heure Température Précipitation Vent Pression Humidité
    00:00 +7°C° 0 mm 2 m/s 715 mmHg 87%
    01:00 +6°C° 0 mm 2 m/s 715 mmHg 88%
    02:00 +6°C° 0 mm 2 m/s 715 mmHg 88%
    03:00 +6°C° 0 mm 2 m/s 715 mmHg 88%
    04:00 +6°C° 0 mm 2 m/s 714 mmHg 88%
    05:00 +6°C° 0 mm 2 m/s 714 mmHg 86%
    06:00 +6°C° 0 mm 2 m/s 715 mmHg 85%
    07:00 +6°C° 0 mm 2 m/s 715 mmHg 83%
    08:00 +9°C° 0 mm 2 m/s 715 mmHg 73%
    09:00 +12°C° 0 mm 1 m/s 715 mmHg 64%
    10:00 +15°C° 0 mm 1 m/s 716 mmHg 54%
    11:00 +16°C° 0 mm 1 m/s 716 mmHg 50%
    12:00 +18°C° 0 mm 1 m/s 715 mmHg 47%
    13:00 +20°C° 0 mm 1 m/s 715 mmHg 43%
    14:00 +19°C° 0 mm 1 m/s 715 mmHg 46%
    15:00 +19°C° 0 mm 1 m/s 714 mmHg 48%
    16:00 +18°C° 0 mm 1 m/s 714 mmHg 51%
    17:00 +15°C° 0 mm 1 m/s 713 mmHg 58%
    18:00 +13°C° 0 mm 1 m/s 713 mmHg 66%
    19:00 +11°C° 0 mm 1 m/s 713 mmHg 74%
    20:00 +11°C° 0 mm 1 m/s 713 mmHg 74%
    21:00 +11°C° 0 mm 1 m/s 713 mmHg 75%
    22:00 +10°C° 0 mm 1 m/s 713 mmHg 75%
    23:00 +10°C° 0 mm 1 m/s 713 mmHg 75%

    25 Mars, Lundi

    Heure Température Précipitation Vent Pression Humidité
    00:00 +10°C° 0 mm 1 m/s 713 mmHg 75%
    01:00 +9°C° 0 mm 1 m/s 712 mmHg 75%
    02:00 +9°C° 0 mm 1 m/s 712 mmHg 75%
    03:00 +8°C° 0 mm 2 m/s 712 mmHg 75%
    04:00 +7°C° 0 mm 2 m/s 712 mmHg 75%
    05:00 +7°C° 0 mm 2 m/s 712 mmHg 75%
    06:00 +7°C° 0 mm 2 m/s 712 mmHg 75%
    07:00 +7°C° 0 mm 2 m/s 712 mmHg 75%
    08:00 +8°C° 0 mm 3 m/s 713 mmHg 73%
    09:00 +10°C° 0 mm 3 m/s 713 mmHg 71%
    10:00 +11°C° 0 mm 3 m/s 714 mmHg 69%
    11:00 +11°C° 0 mm 3 m/s 714 mmHg 70%
    12:00 +11°C° 0 mm 3 m/s 713 mmHg 71%
    13:00 +11°C° 0 mm 4 m/s 713 mmHg 71%
    14:00 +11°C° 0 mm 4 m/s 713 mmHg 72%
    15:00 +10°C° 0 mm 3 m/s 713 mmHg 72%
    16:00 +10°C° 0 mm 3 m/s 712 mmHg 72%
    17:00 +9°C° 0 mm 3 m/s 712 mmHg 74%
    18:00 +8°C° 0 mm 3 m/s 712 mmHg 77%
    19:00 +7°C° 0 mm 3 m/s 712 mmHg 80%
    20:00 +6°C° 0.1 mm 4 m/s 713 mmHg 79%
    21:00 +6°C° 0.1 mm 4 m/s 713 mmHg 78%
    22:00 +5°C° 0.1 mm 4 m/s 713 mmHg 77%
    23:00 +5°C° 0 mm 4 m/s 713 mmHg 76%

    26 Mars, Mardi

    Heure Température Précipitation Vent Pression Humidité
    00:00 +5°C° 0 mm 4 m/s 713 mmHg 74%
    01:00 +4°C° 0 mm 4 m/s 713 mmHg 72%
    02:00 +4°C° 0 mm 3 m/s 713 mmHg 71%
    03:00 +4°C° 0 mm 3 m/s 713 mmHg 70%
    04:00 +3°C° 0 mm 3 m/s 713 mmHg 68%
    05:00 +3°C° 0 mm 3 m/s 713 mmHg 67%
    06:00 +3°C° 0 mm 3 m/s 714 mmHg 65%
    07:00 +3°C° 0 mm 3 m/s 714 mmHg 64%
    08:00 +5°C° 0 mm 3 m/s 714 mmHg 58%
    09:00 +6°C° 0 mm 4 m/s 714 mmHg 52%
    10:00 +8°C° 0 mm 4 m/s 715 mmHg 46%
    11:00 +10°C° 0 mm 4 m/s 714 mmHg 43%
    12:00 +10°C° 0 mm 5 m/s 714 mmHg 40%
    13:00 +10°C° 0 mm 5 m/s 714 mmHg 37%
    14:00 +10°C° 0 mm 5 m/s 714 mmHg 40%
    15:00 +11°C° 0 mm 4 m/s 713 mmHg 43%
    16:00 +11°C° 0 mm 4 m/s 713 mmHg 46%
    17:00 +9°C° 0.1 mm 3 m/s 713 mmHg 53%
    18:00 +8°C° 0.1 mm 3 m/s 713 mmHg 61%
    19:00 +7°C° 0.1 mm 2 m/s 714 mmHg 68%
    20:00 +6°C° 0 mm 2 m/s 714 mmHg 72%
    21:00 +4°C° 0 mm 3 m/s 715 mmHg 75%
    22:00 +3°C° 0 mm 3 m/s 715 mmHg 78%
    23:00 +2°C° 0 mm 3 m/s 715 mmHg 75%
    Voir plus